Weather History for KSEG - February, 2014

Change the Weather History Date:

Saturday, February 15, 2014

  Actual Average (KIPT) Record (KIPT)
Temperature  
Mean Temperature 29 °F 30 °F  
Max Temperature 34 °F 38 °F 60 °F (1949)
Min Temperature 21 °F 21 °F -10 °F (1943)
Degree Days  
Heating Degree Days 36 35  
Month to date heating degree days 548  
Since 1 July heating degree days 4027  
Cooling Degree Days 0 0  
Month to date cooling degree days 0  
Year to date cooling degree days 0  
Moisture  
Dew Point 23 °F    
Average Humidity 79    
Maximum Humidity 93    
Minimum Humidity 47    
Precipitation  
Precipitation 0.25 in 0.08 in 1.37 in (1928)
Month to date precipitation 1.25  
Year to date precipitation 3.95  
Snow  
Snow 0.00 in 0.30 in 7.00 in (1940)
Month to date snowfall 4.7  
Since 1 July snowfall 23.9  
Snow Depth -    
Sea Level Pressure  
Sea Level Pressure 29.76 in    
Wind  
Wind Speed 4 mph (NNW)    
Max Wind Speed 17 mph    
Max Gust Speed 24 mph    
Visibility 4 miles    
Events Fog , Rain , Snow    
T = Trace of Precipitation, MM = Missing Value Source: NWS Daily Summary

Daily Weather History Graph

Daily Weather History Graph

Search for Another Location

Airport or City:

Trip Planner

Search our weather history database for the weather conditions in past years. The results will help you decide how hot, cold, wet, or windy it might be!

Date:

Astronomy

Feb. 15, 2014 Rise Set
Actual Time 7:01 AM EST 5:42 PM EST
Civil Twilight 6:33 AM EST 6:10 PM EST
Nautical Twilight 6:01 AM EST 6:42 PM EST
Astronomical Twilight 5:29 AM EST 7:14 PM EST
Moon 6:40 PM EST (2/15) 6:58 AM EST (2/15)
Length of Visible Light 11h 36m
Length of Day
10h 40m
Full, 100% of the Moon is Illuminated
Feb 15
Full
Feb 22
Last Quarter
Mar 1
New
Mar 8
First Quarter
Mar 16
Full

Hourly Weather History & Observations

Time (EST) Temp. Windchill Dew Point Humidity Pressure Visibility Wind Dir Wind Speed Gust Speed Precip Events Conditions
12:53 AM 24.1 °F - 19.0 °F 81% 29.79 in 7.0 mi Calm Calm - N/A   Overcast
1:53 AM 25.0 °F - 21.0 °F 85% 29.76 in 3.0 mi Calm Calm - 0.00 in Snow Light Snow
2:33 AM 26.1 °F - 21.0 °F 81% 29.75 in 2.0 mi Calm Calm - 0.00 in Snow Light Snow
2:42 AM 26.1 °F - 21.9 °F 84% 29.75 in 2.0 mi Calm Calm - 0.00 in Snow Light Snow
2:53 AM 26.1 °F - 23.0 °F 88% 29.77 in 2.5 mi Calm Calm - 0.00 in Snow Light Snow
3:23 AM 25.0 °F - 23.0 °F 92% 29.73 in 2.5 mi Calm Calm - 0.00 in Snow Light Snow
3:47 AM 26.6 °F 22.6 °F 23.0 °F 86% 29.72 in 1.8 mi NNE 3.5 mph - 0.00 in Snow Light Snow
3:53 AM 26.1 °F 21.9 °F 23.0 °F 88% 29.73 in 1.5 mi North 3.5 mph - 0.00 in Snow Light Snow
4:49 AM 26.6 °F - 24.8 °F 93% 29.71 in 1.0 mi Calm Calm - 0.02 in Snow Light Snow
4:53 AM 27.0 °F - 25.0 °F 92% 29.72 in 1.0 mi Calm Calm - 0.02 in Snow Light Snow
5:03 AM 27.0 °F - 25.0 °F 92% 29.71 in 0.8 mi Calm Calm - 0.01 in Snow Light Snow
5:46 AM 27.0 °F - 25.0 °F 92% 29.71 in 1.0 mi Calm Calm - 0.04 in Snow Light Snow
5:53 AM 28.0 °F - 25.0 °F 88% 29.73 in 1.2 mi Calm Calm - 0.04 in Snow Light Snow
6:03 AM 28.0 °F - 25.0 °F 88% 29.71 in 0.8 mi Calm Calm - 0.00 in Snow Light Snow
6:19 AM 27.0 °F - 25.0 °F 92% 29.71 in 0.8 mi Calm Calm - 0.02 in Snow Light Snow
6:53 AM 28.0 °F 20.8 °F 25.0 °F 88% 29.72 in 1.0 mi NNW 6.9 mph - 0.04 in Snow Light Snow
7:06 AM 28.0 °F 20.8 °F 25.0 °F 88% 29.71 in 1.2 mi NNW 6.9 mph - 0.01 in Snow Light Snow
7:18 AM 28.0 °F 20.8 °F 25.0 °F 88% 29.72 in 1.2 mi NNW 6.9 mph - 0.01 in Snow Light Snow
7:27 AM 28.0 °F 20.8 °F 25.0 °F 88% 29.72 in 1.0 mi NNW 6.9 mph - 0.01 in Snow Light Snow
7:40 AM 28.0 °F 20.8 °F 25.0 °F 88% 29.72 in 0.8 mi NNW 6.9 mph - 0.02 in Snow Light Snow
7:53 AM 28.0 °F 20.0 °F 25.0 °F 88% 29.73 in 0.5 mi NNW 8.1 mph - 0.03 in Fog , Snow Snow
8:39 AM 28.0 °F 21.7 °F 25.0 °F 88% 29.73 in 0.5 mi North 5.8 mph - 0.02 in Fog , Snow Snow
8:53 AM 28.9 °F 25.2 °F 26.1 °F 89% 29.75 in 0.5 mi North 3.5 mph - 0.03 in Fog , Snow Light Snow
9:01 AM 28.9 °F 23.9 °F 26.1 °F 89% 29.73 in 0.5 mi NNW 4.6 mph - 0.01 in Fog , Snow Light Snow
9:22 AM 28.9 °F 22.8 °F 26.1 °F 89% 29.74 in 0.5 mi NNW 5.8 mph - 0.02 in Fog , Snow Snow
9:34 AM 28.9 °F 21.9 °F 26.1 °F 89% 29.74 in 0.8 mi NNW 6.9 mph - 0.03 in Snow Light Snow
9:53 AM 30.0 °F 21.7 °F 27.0 °F 88% 29.76 in 0.8 mi NNW 9.2 mph - 0.04 in Snow Light Snow
10:12 AM 30.0 °F 21.7 °F 27.0 °F 88% 29.74 in 0.5 mi NNW 9.2 mph - 0.01 in Fog , Snow Snow
10:28 AM 30.0 °F 23.2 °F 27.0 °F 88% 29.75 in 0.8 mi North 6.9 mph - 0.01 in Snow Light Snow
10:50 AM 30.2 °F 24.3 °F 26.6 °F 86% 29.76 in 0.5 mi NNE 5.8 mph - 0.02 in Fog , Snow Snow
10:53 AM 30.9 °F 24.3 °F 27.0 °F 85% 29.78 in 0.5 mi NNE 6.9 mph - 0.02 in Fog , Snow Snow
11:53 AM 32.0 °F 22.1 °F 28.0 °F 85% 29.76 in 1.0 mi NNW 13.8 mph - 0.03 in Snow Light Snow
12:17 PM 32.0 °F 23.6 °F 28.0 °F 85% 29.73 in 1.2 mi North 10.4 mph 19.6 mph 0.00 in Snow Light Snow
12:28 PM 32.0 °F 22.5 °F 27.0 °F 82% 29.73 in 2.0 mi NNW 12.7 mph - 0.00 in Snow Light Snow
12:53 PM 33.1 °F 23.4 °F 28.0 °F 82% 29.75 in 2.0 mi North 13.8 mph - 0.00 in Snow Light Snow
1:17 PM 33.1 °F 23.9 °F 27.0 °F 78% 29.73 in 4.0 mi North 12.7 mph - 0.00 in   Overcast
1:34 PM 34.0 °F 24.2 °F 25.0 °F 70% 29.73 in 6.0 mi North 15.0 mph - 0.00 in Rain Light Rain
1:53 PM 34.0 °F 25.0 °F 25.0 °F 70% 29.73 in 10.0 mi North 12.7 mph 20.7 mph 0.00 in   Mostly Cloudy
2:28 PM 34.0 °F 25.5 °F 23.0 °F 64% 29.73 in 10.0 mi North 11.5 mph - N/A   Mostly Cloudy
2:53 PM 34.0 °F 24.2 °F 21.9 °F 61% 29.74 in 10.0 mi North 15.0 mph - N/A   Scattered Clouds
3:53 PM 34.0 °F 25.5 °F 21.0 °F 59% 29.77 in 10.0 mi NNW 11.5 mph - N/A   Overcast
4:53 PM 33.1 °F 23.4 °F 19.0 °F 56% 29.79 in 10.0 mi NNW 13.8 mph - N/A   Overcast
5:53 PM 33.1 °F 24.9 °F 15.1 °F 48% 29.83 in 10.0 mi NW 10.4 mph - N/A   Overcast
6:53 PM 30.9 °F 23.5 °F 15.1 °F 52% 29.86 in 10.0 mi NNW 8.1 mph - N/A   Overcast
7:53 PM 28.9 °F 18.2 °F 12.9 °F 51% 29.87 in 10.0 mi NW 13.8 mph - N/A   Clear
8:53 PM 28.0 °F 20.0 °F 10.0 °F 47% 29.90 in 10.0 mi WNW 8.1 mph 19.6 mph N/A   Clear
9:53 PM 26.1 °F 13.1 °F 10.0 °F 51% 29.92 in 10.0 mi NW 17.3 mph 24.2 mph N/A   Clear
10:53 PM 24.1 °F 12.0 °F 8.1 °F 51% 29.95 in 10.0 mi WNW 13.8 mph 21.9 mph N/A   Clear
11:53 PM 21.0 °F 7.6 °F 8.1 °F 57% 29.95 in 10.0 mi NW 15.0 mph 21.9 mph N/A   Clear